MONITOR-4 (RS57S)

Last updated on Tue Sep 16 2025 00:03:09 GMT+0000 (Coordinated Universal Time)

1 57182U 23091S 25258.44577232 .00010563 00000+0 48165-3 0 9995 2 57182 97.5504 315.5448 0012977 351.2932 8.8076 15.20752760122432
UTC large
Height (km)
Speed (km/s)
/
Latitude / Longitude
Inclination (degrees)
Orbital Period (minutes)
Azimuth
Elevation
Range (km)
Doppler Factor

Next 0 passes for location: London (51.5072 / 0.1276)

Sorry there are no passes over London.